TimeCDT,TemperatureF,Dew PointF,Humidity,Sea Level PressureIn,VisibilityMPH,Wind Direction,Wind SpeedMPH,Gust SpeedMPH,PrecipitationIn,Events,Conditions,WindDirDegrees,DateUTC
12:15 AM,39.2,33.8,81,29.96,10.0,Calm,Calm,-,N/A,,Clear,0,2012-11-01 05:15:00
12:35 AM,38.8,34.3,84,29.97,10.0,Calm,Calm,-,N/A,,Clear,0,2012-11-01 05:35:00
12:55 AM,39.4,34.0,81,29.96,10.0,Calm,Calm,-,N/A,,Clear,0,2012-11-01 05:55:00
1:15 AM,38.1,34.2,86,29.97,10.0,Calm,Calm,-,N/A,,Scattered Clouds,0,2012-11-01 06:15:00
1:35 AM,38.3,34.7,87,29.97,10.0,Calm,Calm,-,N/A,,Scattered Clouds,0,2012-11-01 06:35:00
1:55 AM,38.1,33.8,84,29.97,10.0,Calm,Calm,-,N/A,,Clear,0,2012-11-01 06:55:00
2:15 AM,36.1,32.9,88,29.97,10.0,Calm,Calm,-,N/A,,Clear,0,2012-11-01 07:15:00
2:35 AM,35.8,32.2,87,29.97,10.0,Calm,Calm,-,N/A,,Clear,0,2012-11-01 07:35:00
2:55 AM,36.1,32.9,88,29.97,7.0,Calm,Calm,-,N/A,,Clear,0,2012-11-01 07:55:00
3:15 AM,33.4,31.1,91,29.97,7.0,Calm,Calm,-,N/A,,Scattered Clouds,0,2012-11-01 08:15:00
3:35 AM,35.1,32.7,91,29.97,7.0,Calm,Calm,-,N/A,,Overcast,0,2012-11-01 08:35:00
3:55 AM,35.6,33.8,93,29.97,7.0,Calm,Calm,-,N/A,,Overcast,0,2012-11-01 08:55:00
4:15 AM,35.6,33.1,91,29.97,7.0,Calm,Calm,-,N/A,,Overcast,0,2012-11-01 09:15:00
4:35 AM,36.0,33.3,90,29.97,7.0,Calm,Calm,-,N/A,,Scattered Clouds,0,2012-11-01 09:35:00
4:55 AM,33.4,32.0,94,29.97,7.0,Calm,Calm,-,N/A,,Clear,0,2012-11-01 09:55:00
5:15 AM,33.8,32.7,96,29.96,7.0,Calm,Calm,-,N/A,,Clear,0,2012-11-01 10:15:00
5:35 AM,34.0,32.2,93,29.97,7.0,Calm,Calm,-,N/A,,Clear,0,2012-11-01 10:35:00
5:55 AM,34.0,32.7,95,29.97,7.0,NE,5.8,-,N/A,,Clear,40,2012-11-01 10:55:00
6:15 AM,33.1,32.0,96,29.97,7.0,NNE,5.8,-,N/A,,Clear,30,2012-11-01 11:15:00
6:35 AM,33.8,32.4,94,29.97,7.0,NNE,4.6,-,N/A,,Clear,30,2012-11-01 11:35:00
6:55 AM,33.8,32.0,93,29.98,7.0,NNE,4.6,-,N/A,,Clear,30,2012-11-01 11:55:00
7:15 AM,33.8,32.2,94,29.98,5.0,NNE,5.8,-,N/A,,Clear,20,2012-11-01 12:15:00
7:35 AM,34.0,32.9,96,29.98,5.0,NNE,6.9,-,N/A,,Clear,20,2012-11-01 12:35:00
7:55 AM,34.5,33.3,95,29.99,5.0,NNE,8.1,-,N/A,,Clear,20,2012-11-01 12:55:00
8:15 AM,36.0,35.1,97,29.99,4.0,North,9.2,-,N/A,,Clear,10,2012-11-01 13:15:00
8:35 AM,38.8,37.9,97,29.99,4.0,NNE,10.4,-,N/A,,Mostly Cloudy,20,2012-11-01 13:35:00
8:55 AM,39.9,39.0,97,30.00,3.0,NNE,8.1,-,N/A,,Overcast,20,2012-11-01 13:55:00
9:15 AM,40.5,39.4,96,30.00,4.0,NNE,15.0,19.6,N/A,,Overcast,20,2012-11-01 14:15:00
9:35 AM,41.0,39.4,94,30.01,5.0,North,8.1,-,N/A,,Overcast,10,2012-11-01 14:35:00
9:55 AM,41.0,39.2,93,30.02,5.0,NNE,15.0,18.4,N/A,,Overcast,20,2012-11-01 14:55:00
10:15 AM,40.5,38.3,92,30.03,10.0,North,15.0,-,N/A,,Overcast,10,2012-11-01 15:15:00
10:35 AM,40.6,38.3,91,30.04,7.0,North,9.2,-,N/A,,Overcast,10,2012-11-01 15:35:00
10:55 AM,40.5,37.8,90,30.03,7.0,NNE,10.4,-,N/A,,Overcast,30,2012-11-01 15:55:00
11:15 AM,40.6,37.8,89,30.04,10.0,North,6.9,-,N/A,,Overcast,10,2012-11-01 16:15:00
11:35 AM,40.3,36.5,86,30.05,10.0,North,8.1,-,N/A,,Overcast,360,2012-11-01 16:35:00
11:55 AM,41.4,36.9,84,30.05,10.0,NNW,8.1,-,N/A,,Overcast,340,2012-11-01 16:55:00
12:15 PM,44.1,36.3,74,30.05,10.0,North,11.5,-,N/A,,Scattered Clouds,10,2012-11-01 17:15:00
12:35 PM,46.4,34.3,63,30.03,10.0,NNW,9.2,-,N/A,,Clear,340,2012-11-01 17:35:00
12:55 PM,47.3,34.0,60,30.02,10.0,North,10.4,-,N/A,,Clear,350,2012-11-01 17:55:00
1:15 PM,48.6,33.6,56,30.02,10.0,NNW,11.5,-,N/A,,Clear,340,2012-11-01 18:15:00
1:35 PM,48.4,32.0,53,30.01,10.0,NNW,10.4,17.3,N/A,,Clear,340,2012-11-01 18:35:00
1:55 PM,48.0,31.3,52,30.01,10.0,NNW,12.7,18.4,N/A,,Clear,340,2012-11-01 18:55:00
2:15 PM,49.1,30.6,49,30.00,10.0,NNW,10.4,-,N/A,,Clear,340,2012-11-01 19:15:00
2:35 PM,49.5,30.7,49,30.00,10.0,North,8.1,-,N/A,,Clear,350,2012-11-01 19:35:00
2:55 PM,50.2,29.8,46,29.99,10.0,North,6.9,-,N/A,,Clear,10,2012-11-01 19:55:00
3:15 PM,50.9,30.4,45,29.98,10.0,North,11.5,-,N/A,,Clear,10,2012-11-01 20:15:00
3:35 PM,50.9,29.5,44,29.99,10.0,NNW,9.2,-,N/A,,Clear,340,2012-11-01 20:35:00
3:55 PM,50.9,28.0,41,29.99,10.0,North,11.5,-,N/A,,Clear,350,2012-11-01 20:55:00
4:15 PM,50.4,27.1,41,29.98,10.0,North,9.2,-,N/A,,Clear,360,2012-11-01 21:15:00
4:35 PM,50.4,27.9,42,29.98,10.0,North,6.9,-,N/A,,Clear,350,2012-11-01 21:35:00
4:55 PM,50.0,27.3,41,29.97,10.0,North,8.1,-,N/A,,Clear,350,2012-11-01 21:55:00
5:15 PM,48.9,26.1,41,29.97,10.0,North,8.1,-,N/A,,Clear,360,2012-11-01 22:15:00
5:35 PM,47.5,27.1,45,29.98,10.0,North,10.4,-,N/A,,Clear,350,2012-11-01 22:35:00
5:55 PM,45.5,26.6,48,29.98,10.0,North,4.6,-,N/A,,Clear,350,2012-11-01 22:55:00
6:15 PM,44.8,26.6,49,29.98,10.0,North,5.8,-,N/A,,Clear,360,2012-11-01 23:15:00
6:35 PM,43.7,25.9,50,29.99,10.0,NNE,4.6,-,N/A,,Clear,20,2012-11-01 23:35:00
6:55 PM,42.8,25.7,51,29.99,10.0,NNE,3.5,-,N/A,,Clear,20,2012-11-01 23:55:00
7:15 PM,41.0,26.4,56,29.99,10.0,NNE,3.5,-,N/A,,Clear,20,2012-11-02 00:15:00
7:35 PM,39.9,26.2,58,29.99,10.0,NE,3.5,-,N/A,,Clear,40,2012-11-02 00:35:00
7:55 PM,39.6,25.7,58,29.99,10.0,NE,5.8,-,N/A,,Clear,40,2012-11-02 00:55:00
8:15 PM,39.2,25.5,58,30.00,10.0,North,5.8,-,N/A,,Clear,10,2012-11-02 01:15:00
8:35 PM,37.9,25.7,61,30.00,10.0,NE,5.8,-,N/A,,Clear,40,2012-11-02 01:35:00
8:55 PM,37.4,25.7,63,30.00,10.0,NNE,5.8,-,N/A,,Clear,20,2012-11-02 01:55:00
9:15 PM,36.7,25.7,64,30.00,10.0,North,4.6,-,N/A,,Clear,10,2012-11-02 02:15:00
9:35 PM,36.5,25.7,65,30.01,10.0,North,4.6,-,N/A,,Clear,10,2012-11-02 02:35:00
9:55 PM,36.0,25.9,67,30.01,10.0,Calm,Calm,-,N/A,,Clear,0,2012-11-02 02:55:00
10:15 PM,35.6,26.2,69,30.02,10.0,Calm,Calm,-,N/A,,Clear,0,2012-11-02 03:15:00
10:35 PM,35.6,26.2,69,30.01,10.0,NE,3.5,-,N/A,,Clear,40,2012-11-02 03:35:00
10:55 PM,35.6,26.1,68,30.01,10.0,NNE,5.8,-,N/A,,Clear,30,2012-11-02 03:55:00
11:15 PM,35.6,26.2,69,30.02,10.0,NE,4.6,-,N/A,,Clear,50,2012-11-02 04:15:00
11:35 PM,34.7,26.6,72,30.02,10.0,NE,5.8,-,N/A,,Clear,40,2012-11-02 04:35:00
11:55 PM,34.2,26.4,73,30.03,10.0,NNE,5.8,-,N/A,,Clear,30,2012-11-02 04:55:00